Simultaneous Nadir Overpasses (SNOs) Predictions

Prediction of SNOs near equator between AQUA and NPP Satellite Orbit:

Table of predicted SNOs near equator for the next 14.0 days since TLE Epoch: 11/25/2012
Index Date (AQUA) Time (AQUA) AQUA Lat,Lon Date (NPP) Time (NPP) NPP Lat,Lon Distance(km) Time Diff (sec)
1 11/26/2012 09:30:48 -3.91,-119.46 11/26/2012 09:21:27 -3.76,-120.18 81.75 561
2 11/29/2012 01:04:07 26.43,-176.31 11/29/2012 00:54:07 26.42,-177.12 80.32 600
3 11/29/2012 01:46:49 -2.29, -3.23 11/29/2012 01:37:54 -2.12, -4.04 92.31 535
4 12/01/2012 17:14:41 5.17, -55.61 12/01/2012 17:04:58 5.06, -56.26 72.95 583
5 12/04/2012 09:30:38 3.48, 60.65 12/04/2012 09:21:23 3.32, 59.91 84.49 555
6 12/07/2012 00:58:15 -6.23, 8.35 12/07/2012 00:48:15 -6.11, 7.76 66.41 600
7 12/07/2012 01:46:31 1.71, 176.93 12/07/2012 01:37:46 1.53, 176.08 96.59 525




NCC Satellite Simultaneous Nadir Overpasses (SNOs) Prediction Service
